When you browse on this site, cookies collect data to enhance your experience and personalize the content and advertising you see.
Visit our Privacy Policy to learn more. By continuing to use the site, you agree to this use of cookies and data.
  • In Hungary
  • List of Countries
  • For 7 days
  • Water Temperature
  • Satellite Maps
  • Weather Map
  • News
  • Weather Widgets
  • user-avatar
    Login

    Hourly Weather Huainan

    Today, 10 December, Monday

    Time Temperature Precipitation Wind Pressure Humidity
    00:00 +2°C° 0.1 mm 2 mps 769 mmHg 65%
    01:00 +2°C° 0.1 mm 2 mps 769 mmHg 68%
    02:00 +2°C° 0 mm 2 mps 769 mmHg 69%
    03:00 +2°C° 0 mm 2 mps 769 mmHg 71%
    04:00 +1°C° 0 mm 3 mps 769 mmHg 73%
    05:00 +1°C° 0 mm 3 mps 769 mmHg 75%
    06:00 +1°C° 0.1 mm 3 mps 769 mmHg 78%
    07:00 +1°C° 0.1 mm 3 mps 768 mmHg 80%
    08:00 +1°C° 0 mm 3 mps 769 mmHg 80%
    09:00 +2°C° 0.2 mm 3 mps 769 mmHg 80%
    10:00 +2°C° 0.2 mm 3 mps 769 mmHg 81%
    11:00 +1°C° 0.2 mm 4 mps 769 mmHg 81%
    12:00 +1°C° 0.3 mm 4 mps 768 mmHg 83%
    13:00 +1°C° 0.3 mm 4 mps 768 mmHg 84%
    14:00 +2°C° 0 mm 3 mps 767 mmHg 87%
    15:00 +2°C° 0.8 mm 3 mps 767 mmHg 88%
    16:00 +1°C° 0.8 mm 4 mps 767 mmHg 89%
    17:00 +1°C° 0.8 mm 4 mps 767 mmHg 90%
    18:00 +3°C° 0.7 mm 4 mps 767 mmHg 91%
    19:00 +3°C° 0.7 mm 4 mps 767 mmHg 91%
    20:00 +3°C° 0.7 mm 4 mps 767 mmHg 91%
    21:00 +3°C° 0.5 mm 4 mps 767 mmHg 91%
    22:00 +3°C° 0.5 mm 4 mps 767 mmHg 91%
    23:00 +3°C° 0.5 mm 4 mps 767 mmHg 91%

    Tomorrow, 11 December, Tuesday

    Time Temperature Precipitation Wind Pressure Humidity
    00:00 +3°C° 0.4 mm 4 mps 768 mmHg 91%
    01:00 +3°C° 0.4 mm 4 mps 768 mmHg 91%
    02:00 +1°C° 0.4 mm 4 mps 768 mmHg 90%
    03:00 +1°C° 0.2 mm 4 mps 768 mmHg 90%
    04:00 +1°C° 0.2 mm 4 mps 768 mmHg 90%
    05:00 +1°C° 0.2 mm 4 mps 768 mmHg 90%
    06:00 +1°C° 0.1 mm 4 mps 768 mmHg 89%
    07:00 +1°C° 0.1 mm 4 mps 769 mmHg 88%
    08:00 0°C° 0.1 mm 4 mps 769 mmHg 87%
    09:00 +1°C° 0 mm 5 mps 769 mmHg 82%
    10:00 +1°C° 0 mm 5 mps 770 mmHg 76%
    11:00 +2°C° 0 mm 5 mps 770 mmHg 71%
    12:00 +2°C° 0 mm 5 mps 770 mmHg 65%
    13:00 +3°C° 0 mm 5 mps 770 mmHg 58%
    14:00 +5°C° 0 mm 5 mps 769 mmHg 52%
    15:00 +3°C° 0 mm 5 mps 770 mmHg 52%
    16:00 +3°C° 0 mm 4 mps 770 mmHg 52%
    17:00 +3°C° 0 mm 3 mps 770 mmHg 52%
    18:00 +2°C° 0 mm 3 mps 770 mmHg 53%
    19:00 +1°C° 0 mm 3 mps 771 mmHg 55%
    20:00 +1°C° 0 mm 3 mps 771 mmHg 56%
    21:00 0°C° 0 mm 3 mps 771 mmHg 56%
    22:00 0°C° 0 mm 3 mps 772 mmHg 56%
    23:00 -1°C° 0 mm 3 mps 772 mmHg 57%

    Day after tomorrow, 12 December, Wednesday

    Time Temperature Precipitation Wind Pressure Humidity
    00:00 -1°C° 0 mm 3 mps 772 mmHg 58%
    01:00 -1°C° 0 mm 2 mps 772 mmHg 58%
    02:00 -2°C° 0 mm 2 mps 772 mmHg 59%
    03:00 -2°C° 0 mm 2 mps 772 mmHg 58%
    04:00 -2°C° 0 mm 2 mps 772 mmHg 58%
    05:00 -2°C° 0 mm 2 mps 771 mmHg 57%
    06:00 -2°C° 0 mm 2 mps 772 mmHg 54%
    07:00 -2°C° 0 mm 2 mps 772 mmHg 52%
    08:00 -2°C° 0 mm 2 mps 772 mmHg 49%
    09:00 +1°C° 0 mm 2 mps 772 mmHg 44%
    10:00 +2°C° 0 mm 2 mps 772 mmHg 38%
    11:00 +3°C° 0 mm 2 mps 772 mmHg 32%
    12:00 +3°C° 0 mm 2 mps 772 mmHg 30%
    13:00 +5°C° 0 mm 1 mps 771 mmHg 29%
    14:00 +6°C° 0 mm 1 mps 770 mmHg 28%
    15:00 +5°C° 0 mm 1 mps 770 mmHg 32%
    16:00 +5°C° 0 mm 1 mps 770 mmHg 35%
    17:00 +4°C° 0 mm 1 mps 769 mmHg 39%
    18:00 +4°C° 0 mm 1 mps 770 mmHg 41%
    19:00 +3°C° 0 mm 1 mps 770 mmHg 43%
    20:00 +2°C° 0 mm 1 mps 770 mmHg 45%
    21:00 +2°C° 0 mm 1 mps 770 mmHg 45%
    22:00 +2°C° 0 mm 1 mps 770 mmHg 46%
    23:00 +2°C° 0 mm 1 mps 770 mmHg 47%

    13 December, Thursday

    Time Temperature Precipitation Wind Pressure Humidity
    00:00 +2°C° 0 mm 1 mps 770 mmHg 47%
    01:00 +2°C° 0 mm 1 mps 770 mmHg 48%
    02:00 +1°C° 0 mm 1 mps 770 mmHg 48%
    03:00 +1°C° 0 mm 1 mps 770 mmHg 47%
    04:00 +1°C° 0 mm 1 mps 769 mmHg 47%
    05:00 +1°C° 0 mm 1 mps 769 mmHg 47%
    06:00 +1°C° 0 mm 1 mps 770 mmHg 46%
    07:00 +2°C° 0 mm 1 mps 770 mmHg 45%
    08:00 +2°C° 0 mm 1 mps 771 mmHg 44%
    09:00 +2°C° 0 mm 2 mps 771 mmHg 40%
    10:00 +4°C° 0 mm 2 mps 771 mmHg 35%
    11:00 +5°C° 0 mm 2 mps 771 mmHg 30%
    12:00 +6°C° 0 mm 2 mps 771 mmHg 29%
    13:00 +6°C° 0 mm 2 mps 770 mmHg 29%
    14:00 +7°C° 0 mm 2 mps 769 mmHg 28%
    15:00 +6°C° 0 mm 2 mps 769 mmHg 32%
    16:00 +5°C° 0 mm 2 mps 769 mmHg 37%
    17:00 +5°C° 0 mm 2 mps 769 mmHg 42%
    18:00 +4°C° 0 mm 2 mps 770 mmHg 44%
    19:00 +3°C° 0 mm 2 mps 770 mmHg 47%
    20:00 +2°C° 0 mm 3 mps 771 mmHg 50%
    21:00 +2°C° 0 mm 2 mps 771 mmHg 51%
    22:00 +2°C° 0 mm 2 mps 771 mmHg 52%
    23:00 +2°C° 0 mm 2 mps 771 mmHg 53%

    14 December, Friday

    Time Temperature Precipitation Wind Pressure Humidity
    00:00 +1°C° 0 mm 2 mps 771 mmHg 55%
    01:00 +1°C° 0 mm 2 mps 771 mmHg 56%
    02:00 +1°C° 0 mm 2 mps 771 mmHg 58%
    03:00 +1°C° 0 mm 2 mps 771 mmHg 61%
    04:00 0°C° 0 mm 3 mps 770 mmHg 64%
    05:00 -1°C° 0 mm 3 mps 770 mmHg 67%
    06:00 0°C° 0 mm 3 mps 771 mmHg 68%
    07:00 0°C° 0 mm 3 mps 771 mmHg 68%
    08:00 0°C° 0 mm 3 mps 771 mmHg 69%
    09:00 +2°C° 0 mm 3 mps 771 mmHg 65%
    10:00 +4°C° 0 mm 4 mps 771 mmHg 61%
    11:00 +5°C° 0 mm 4 mps 771 mmHg 57%
    12:00 +6°C° 0 mm 4 mps 770 mmHg 55%
    13:00 +8°C° 0 mm 3 mps 769 mmHg 53%
    14:00 +9°C° 0 mm 3 mps 768 mmHg 51%
    15:00 +9°C° 0 mm 3 mps 768 mmHg 55%
    16:00 +8°C° 0 mm 2 mps 768 mmHg 59%
    17:00 +8°C° 0 mm 2 mps 768 mmHg 63%
    18:00 +7°C° 0 mm 2 mps 768 mmHg 65%
    19:00 +7°C° 0 mm 2 mps 768 mmHg 68%
    20:00 +7°C° 0 mm 2 mps 769 mmHg 71%
    21:00 +6°C° 0 mm 2 mps 768 mmHg 73%
    22:00 +6°C° 0 mm 2 mps 768 mmHg 75%
    23:00 +6°C° 0 mm 2 mps 768 mmHg 78%

    15 December, Saturday

    Time Temperature Precipitation Wind Pressure Humidity
    00:00 +5°C° 0 mm 2 mps 768 mmHg 79%
    01:00 +5°C° 0 mm 2 mps 767 mmHg 80%
    02:00 +5°C° 0 mm 2 mps 767 mmHg 81%
    03:00 +5°C° 0 mm 2 mps 767 mmHg 82%
    04:00 +5°C° 0 mm 2 mps 766 mmHg 83%
    05:00 +5°C° 0 mm 2 mps 766 mmHg 83%
    06:00 +5°C° 0 mm 2 mps 766 mmHg 83%
    07:00 +5°C° 0 mm 2 mps 767 mmHg 83%
    08:00 +7°C° 0 mm 1 mps 767 mmHg 83%
    09:00 +8°C° 0 mm 1 mps 767 mmHg 79%
    10:00 +9°C° 0 mm 1 mps 767 mmHg 76%
    11:00 +10°C° 0 mm 1 mps 767 mmHg 72%
    12:00 +11°C° 0 mm 1 mps 766 mmHg 68%
    13:00 +11°C° 0 mm 1 mps 765 mmHg 65%
    14:00 +12°C° 0 mm 1 mps 765 mmHg 61%
    15:00 +12°C° 0 mm 1 mps 765 mmHg 63%
    16:00 +12°C° 0 mm 1 mps 765 mmHg 65%
    17:00 +11°C° 0 mm 1 mps 765 mmHg 66%
    18:00 +11°C° 0 mm 1 mps 765 mmHg 68%
    19:00 +10°C° 0 mm 1 mps 765 mmHg 70%
    20:00 +10°C° 0 mm 1 mps 766 mmHg 72%
    21:00 +9°C° 0 mm 1 mps 765 mmHg 73%
    22:00 +9°C° 0 mm 1 mps 765 mmHg 75%
    23:00 +7°C° 0 mm 2 mps 765 mmHg 76%
    Show more